Tracking 30509 objects as of 21-May-2025
HD Live streaming from Space Station
objects crossing your sky now

FORMOSAT 3B

Track FORMOSAT 3B now!
10-day predictions
FORMOSAT 3B is classified as:


NORAD ID: 29048
Int'l Code: 2006-011B
Perigee: 765.7 km
Apogee: 825.9 km
Inclination: 72.0 °
Period: 100.6 minutes
Semi major axis: 7166 km
RCS: 0.6095 m2 (medium)
Launch date: April 15, 2006
Source: Taiwan (Republic of China) (ROC)
Launch site: AIR FORCE WESTERN TEST RANGE (AFWTR)
Your satellite tracking list
Your tracking list is empty




NASA's NSSDC Master Catalog

Two Line Element Set (TLE):
1 29048U 06011B   25141.18557568  .00000522  00000-0  21235-3 0  9994
2 29048  71.9657 303.5628 0042014 160.2362 200.0416 14.30928729   792
Source of the keplerian elements: AFSPC